Weather History for Riverton, WY

Change the Weather History Date:

Sunday, July 14, 2013

  Actual Average Record
Temperature  
Mean Temperature 76 °F 72 °F  
Max Temperature 89 °F 87 °F 100 °F (2002)
Min Temperature 62 °F 57 °F 48 °F (1996)
Degree Days  
Heating Degree Days 0 0  
Month to date heating degree days 0 8  
Since 1 June heating degree days 52 127  
Since 1 July heating degree days 0 8  
Cooling Degree Days 11 7  
Month to date cooling degree days 138 84  
Year to date cooling degree days 288 159  
Since 1 June cooling degree days 275 150  
Growing Degree Days 24 (Base 50)    
Moisture  
Dew Point 45 °F    
Average Humidity 39    
Maximum Humidity 67    
Minimum Humidity 10    
Precipitation  
Precipitation T in 0.03 in 0.01 in (1999)
Month to date precipitation 0.28 0.47  
Year to date precipitation 3.77 5.83  
Snow  
Snow 0.00 in - - ()
Month to date snowfall 0.0  
Since 1 June snowfall 0.0  
Since 1 July snowfall 0.0  
Snow Depth 0.00 in    
Sea Level Pressure  
Sea Level Pressure 30.02 in    
Wind  
Wind Speed 10 mph (East)    
Max Wind Speed 24 mph    
Max Gust Speed 31 mph    
Visibility 10 miles    
Events      
T = Trace of Precipitation, MM = Missing Value Source: NWS Daily Summary

Daily Weather History Graph

Daily Weather History Graph

Search for Another Location

Airport:

Trip Planner

Search our weather history database for the weather conditions in past years. The results will help you decide how hot, cold, wet, or windy it might be!

Date:

Astronomy

Jul. 14, 2013 Rise Set
Actual Time 5:47 AM MDT 8:51 PM MDT
Civil Twilight 5:13 AM MDT 9:25 PM MDT
Nautical Twilight 4:29 AM MDT 10:09 PM MDT
Astronomical Twilight 3:37 AM MDT 11:01 PM MDT
Moon 12:19 PM MDT (7/14) 11:53 PM MDT (7/14)
Length of Visible Light 16h 12m
Length of Day
15h 04m
Waxing Crescent, 35% of the Moon is Illuminated
Jul 14
Waxing Crescent
Jul 15
First Quarter
Jul 22
Full
Jul 29
Last Quarter
Aug 6
New

Hourly Weather History & Observations

Time (MDT) Temp. Dew Point Humidity Pressure Visibility Wind Dir Wind Speed Gust Speed Precip Events Conditions
12:53 AM 69.1 °F 43.0 °F 39% 29.98 in 10.0 mi East 9.2 mph - N/A   Mostly Cloudy
1:53 AM 69.1 °F 52.0 °F 54% 29.99 in 10.0 mi East 19.6 mph 26.5 mph N/A   Clear
2:53 AM 66.9 °F 52.0 °F 59% 30.01 in 10.0 mi East 15.0 mph - N/A   Clear
3:53 AM 64.9 °F 51.1 °F 61% 30.04 in 10.0 mi East 12.7 mph - N/A   Clear
4:53 AM 62.1 °F 51.1 °F 67% 30.08 in 10.0 mi East 11.5 mph - N/A   Clear
5:53 AM 62.1 °F 50.0 °F 65% 30.10 in 10.0 mi East 9.2 mph - N/A   Overcast
6:53 AM 63.0 °F 48.9 °F 60% 30.11 in 10.0 mi East 11.5 mph - N/A   Overcast
7:53 AM 64.0 °F 46.9 °F 54% 30.11 in 10.0 mi ESE 11.5 mph - N/A   Overcast
8:53 AM 68.0 °F 45.0 °F 43% 30.11 in 10.0 mi ESE 15.0 mph - N/A   Clear
9:53 AM 72.0 °F 44.1 °F 37% 30.10 in 10.0 mi ESE 17.3 mph - N/A   Clear
10:53 AM 73.9 °F 48.0 °F 40% 30.08 in 10.0 mi East 15.0 mph - N/A   Clear
11:53 AM 75.9 °F 48.9 °F 38% 30.07 in 10.0 mi NE 6.9 mph - N/A   Clear
12:53 PM 78.1 °F 48.9 °F 36% 30.05 in 10.0 mi Variable 6.9 mph - N/A   Clear
1:53 PM 80.1 °F 48.0 °F 32% 30.02 in 10.0 mi Variable 4.6 mph - N/A   Clear
2:53 PM 82.9 °F 45.0 °F 26% 29.99 in 10.0 mi Variable 5.8 mph - N/A   Clear
3:53 PM 87.1 °F 33.1 °F 15% 29.96 in 10.0 mi Variable 5.8 mph - N/A   Clear
4:53 PM 87.1 °F 24.1 °F 10% 29.95 in 10.0 mi Calm Calm - N/A   Clear
5:53 PM 86.0 °F 30.0 °F 13% 29.94 in 10.0 mi Calm Calm - N/A   Clear
6:53 PM 84.0 °F 39.9 °F 21% 29.94 in 10.0 mi SSE 10.4 mph 16.1 mph 0.00 in   Overcast
7:53 PM 79.0 °F 43.0 °F 28% 29.95 in 10.0 mi East 16.1 mph 21.9 mph 0.00 in   Clear
8:53 PM 73.9 °F 45.0 °F 35% 29.96 in 10.0 mi ENE 9.2 mph - N/A   Clear
9:53 PM 73.0 °F 44.1 °F 35% 29.96 in 10.0 mi NE 4.6 mph - N/A   Clear
10:53 PM 73.0 °F 45.0 °F 37% 29.97 in 10.0 mi NNW 5.8 mph - N/A   Mostly Cloudy
11:53 PM 73.9 °F 46.9 °F 38% 29.96 in 10.0 mi ENE 6.9 mph - 0.00 in   Scattered Clouds